Location: Newark
(39.6867°N, 100.6772°W)
Time: 05:58:10
(UTC+00:00)

Vanguard 1 - Pass Details

Date: 16 October 2019
Orbit: 652 x 3831 km, 34.2° (Epoch: 11 November)

Event Time Altitude Azimuth Distance (km) Brightness Sun altitude
Rises 06:08:59 0° 274° (W) 5,657 14.1 -58.8°
Reaches altitude 10° 06:12:05 10° 272° (W) 4,990 13.6 -58.9°
Enters shadow 06:13:11 14° 271° (W) 4,771 13.5 -58.9°
Maximum altitude 06:27:55 67° 194° (SSW) 3,542 - -59.1°
Exits shadow 06:48:56 14° 120° (ESE) 6,531 14.0 -58.8°
Drops below altitude 10° 06:51:05 10° 119° (ESE) 6,910 14.2 -58.7°
Sets 06:56:21 0° 117° (ESE) 7,835 14.6 -58.5°
